CZ-6A DEB, 62338

Orbit data source: Space-Track

CZ-6A DEB, 62338 is space debris in SSO originally from a launch on Fri, 11 Nov 2022 UTC launched from the Taiyaun Space Center, China (TSC). Debris objects in space refer to the collection of defunct objects orbiting the Earth. Examples of debris include non-operational satellites, rocket bodies, and fragments generated from explosions, collisions, or faulty payload assembly.

Loading next visibility...
Identifier
62338, 2022-151AJD
Orbit
SSO
Country
Flag of CNCN / PRC
Related business
Manufacturer
SAST
Mission
Spacecraft
Bus & Motor
Unknown
Mass
Unknown
Launch date (UTC)
2022-11-11 (4 years ago)
Launch vehicle
Unknown
Launch site
Taiyaun Space Center, China (TSC)
Object type
Payload
Rocket body
Debris
Shape & HBR
Unknown shape, 1.1 m
Radar Cross Section
Medium (>0.1 m² and <1 m²)

Expand to show TLE details & history
Last TLE update: 11 hours ago

TLE from 11 hours ago
0 CZ-6A DEB
1 62338U 22151AJD 26264.37227806  .00002386  00000-0  79758-3 0  9996
2 62338  98.7378 300.8249 0028139  25.5633 334.6937 14.38161712182627
Epoch: 2026-09-21T08:56Z
TLE epoch observation values (Epoch: 2026-09-21T08:56:04.824Z)
Latitude
-0.00011°
Longitude
166.55176°
Altitude
749.354 km
Speed
7.489 km/s
True Right ascension
20h 03m 17s
True Declination
0° 00' 00"
Sunlit
Object was in full shadow at epoch
Visualization orbit readout
Latitude
Unknown
Longitude
Unknown
Altitude
Unknown
Speed
Unknown
Apparent Right ascension
Unknown
Apparent Declination
Unknown
Sunlit
N/A
Visualization observer readout
Local Sidereal Time
13:10:12
Azimuth
Unknown
Elevation
Unknown
Doppler factor
Unknown
Orbital elements
Apogee altitude
781.805 km
Perigee altitude
741.623 km
Semi-major axis
7,139.851 km
Eccentricity
0.00281
Inclination
98.7378°
RAAN
300.8249°
Arg. of periapsis
25.5633°
True anomaly
334.55543°
Mean anomaly
334.6937°
Eccentric anomaly
334.62461°
Mean motion
3.59757 °/min
Orbital period
100.07 mins
BSTAR
0.00079758
Loading maneuver chart data...
Computing Atmospheric mass density...
Loading historical data...
Loading historical data...
Loading historical data...
Loading historical data...
Loading historical data...
Loading historical data...
Loading historical data...

Documentation

Showing up to 5 results
|